Regional Weather Roundup
Issued by NWS Cleveland, OH

Home | Current Version | Previous Version | Graphics & Text | Print | Product List | Glossary On
Versions: 1 2 3 4 5 6 7 8 9 10 11 12 13 14 15 16 17 18 19 20 21 22 23 24 25 26 27 28 29 30 31 32 33 34 35 36 37 38 39 40 41 42 43 44 45 46 47 48 49 50
000
ASUS41 KCLE 200502
RWRCLE
OHIO REGIONAL WEATHER ROUNDUP
NATIONAL WEATHER SERVICE CLEVELAND, OH
100 AM EDT SAT SEP 20 2014

NOTE: "FAIR" INDICATES FEW OR NO CLOUDS BELOW 12,000 FEET WITH NO
SIGNIFICANT WEATHER AND/OR OBSTRUCTIONS TO VISIBILITY.

OHZ001>008-015>018-024>027-034-035-043-044-200600-
   NORTHWEST OHIO

CITY           SKY/WX    TMP DP  RH WIND       PRES   REMARKS
DEFIANCE       PTCLDY    51  47  86 S3        30.05F
FINDLAY        PTCLDY    53  46  77 S5        30.05F
TOLEDO EXPRESS PTCLDY    49  48  97 CALM      30.05F FOG
TOLEDO EXEC    PTCLDY    53  48  83 S3        30.06F
LIMA           PTCLDY    55  47  74 S7        30.06F
$$

OHZ009>014-019>023-028>033-038-089-200600-
   NORTHEAST OHIO

CITY           SKY/WX    TMP DP  RH WIND       PRES   REMARKS
CLE-HOPKINS    PTCLDY    55  50  83 S5        30.09F
CLE-LAKEFRONT  CLEAR     60  52  74 S10       30.06F
CUY CO. ARPT   NOT AVBL
LORAIN-ELYRIA  PTCLDY    53  48  83 S3        30.08F
ASHTABULA      PTCLDY    58  54  86 S8        30.10F
AKRON-CANTON   PTCLDY    62  56  80 S10       30.11S
WOOSTER        PTCLDY    51  48  89 S5        30.10F FOG
MANSFIELD      CLEAR     57  51  80 SE8       30.09F
YOUNGSTOWN     PTCLDY    61  55  81 S8        30.12R
$$

OHZ042-051>053-060>062-070>072-077>081-200600-
  SOUTHWEST OHIO

CITY           SKY/WX    TMP DP  RH WIND       PRES   REMARKS
CINC-COVINGTON PTCLDY    62  52  69 CALM      30.09S
CINC-LUNKEN    CLEAR     53  53 100 CALM      30.10S FOG
HAMILTON       CLEAR     52  51  97 CALM      30.10S
DAYTON         PTCLDY    60  50  69 S7        30.09F
WRIGHT-PAT AFB CLEAR     55  51  87 E2        30.08F
DAYTON GENERAL CLEAR     62  51  67 S5        30.08F
WILMINGTON     CLEAR     56  50  80 S3        30.10S
$$

OHZ036-037-039>041-045>050-054>059-063>069-073>076-082>088-200600-
  CENTRAL AND SOUTHEAST OHIO

CITY           SKY/WX    TMP DP  RH WIND       PRES   REMARKS
COLUMBUS       PTCLDY    62  52  69 CALM      30.09S
OSU AIRPORT    CLEAR     57  51  80 CALM      30.09S
BOLTON FIELD   CLEAR     50  49  97 SW3       30.09F
RICKENBACK AFB CLEAR     55  51  88 CALM      30.09S
NEWARK         MOCLDY    52  49  89 CALM      30.10S
MARION         CLEAR     53  48  83 S9        30.08F
LANCASTER      MOCLDY    59  55  87 SE6       30.10S
ZANESVILLE     CLEAR     63  57  81 S9        30.12R
NEW PHILLY     PTCLDY    59  57  93 SE5       30.12S
$$



USA.gov is the U.S. government's official web portal to all federal, state and local government web resources and services.